BTI9UZ EYVI-EETN

Flight info

Callsign BTI9UZ
Flight time N/A
Altitude 24000
Route ATMEZ1A/01 ATMEZ DCT TAGOL DCT LUNIT DCT GONOS
Aircraft DH8D/M-SDE2E3FGRY/H

Departure

Time N/A
Airport Vilnius International Airport (EYVI)

Arrival

Time 2026-04-30 18:22
Airport Lennart Meri Tallinn Airport (EETN)
Time Latitude Longitude Altitude Speed Heading
2026-04-30 17:39 56.72996 25.23794 24260 ft 262 kts
2026-04-30 17:41 56.87510 25.25896 24250 ft 262 kts
2026-04-30 17:42 56.91132 25.26423 24243 ft 261 kts
2026-04-30 17:42 56.96556 25.27215 24243 ft 261 kts
2026-04-30 17:43 57.00167 25.27744 24238 ft 261 kts
2026-04-30 17:44 57.05585 25.28538 24236 ft 261 kts
2026-04-30 17:44 57.10987 25.29333 24238 ft 261 kts
2026-04-30 17:46 57.20067 25.30675 24248 ft 264 kts
2026-04-30 17:47 57.27378 25.31758 24239 ft 265 kts
2026-04-30 17:48 57.34690 25.32847 24234 ft 265 kts
2026-04-30 17:48 57.40199 25.33670 24236 ft 265 kts
2026-04-30 17:49 57.47513 25.34766 24227 ft 265 kts
2026-04-30 17:50 57.54870 25.35874 24223 ft 266 kts
2026-04-30 17:51 57.60364 25.36704 24222 ft 266 kts
2026-04-30 17:52 57.65870 25.37538 24214 ft 265 kts
2026-04-30 17:53 57.75032 25.38932 24214 ft 265 kts
2026-04-30 17:54 57.82362 25.40053 24214 ft 265 kts
2026-04-30 17:55 57.89677 25.41176 24219 ft 265 kts
2026-04-30 17:56 57.96996 25.42303 24210 ft 265 kts
2026-04-30 17:57 58.02498 25.43154 24213 ft 265 kts
2026-04-30 17:58 58.08004 25.44009 24215 ft 265 kts
2026-04-30 17:59 58.15362 25.45155 24212 ft 267 kts
2026-04-30 18:00 58.22139 25.46214 24205 ft 268 kts
2026-04-30 18:00 58.27714 25.47088 24209 ft 269 kts
2026-04-30 18:01 58.32059 25.47772 24214 ft 269 kts
2026-04-30 18:02 58.37646 25.48662 24203 ft 269 kts
2026-04-30 18:02 58.43208 25.49537 24214 ft 269 kts
2026-04-30 18:03 58.48819 25.50426 24213 ft 270 kts
2026-04-30 18:04 58.54401 25.51312 24210 ft 269 kts
2026-04-30 18:05 58.61843 25.52504 24210 ft 270 kts
2026-04-30 18:06 58.69310 25.53703 24223 ft 269 kts
2026-04-30 18:07 58.76779 25.54897 22890 ft 270 kts
2026-04-30 18:08 58.82277 25.55775 21386 ft 265 kts
2026-04-30 18:09 58.89411 25.56920 19415 ft 251 kts
2026-04-30 18:10 58.96172 25.56471 17541 ft 252 kts 345°
2026-04-30 18:11 59.02831 25.51659 15586 ft 260 kts 343°
2026-04-30 18:11 59.07905 25.48006 14012 ft 263 kts 342°
2026-04-30 18:12 59.13061 25.44305 12361 ft 264 kts 342°
2026-04-30 18:13 59.16460 25.41866 11351 ft 260 kts 342°
2026-04-30 18:13 59.20856 25.38687 10052 ft 245 kts 342°
2026-04-30 18:14 59.24515 25.36046 8991 ft 242 kts 342°
2026-04-30 18:15 59.29214 25.32646 7600 ft 237 kts 342°
2026-04-30 18:15 59.33686 25.29389 6290 ft 225 kts 342°
2026-04-30 18:16 59.36577 25.27286 5443 ft 217 kts 342°
2026-04-30 18:16 59.39330 25.25276 4642 ft 208 kts 341°
2026-04-30 18:17 59.40594 25.23891 4103 ft 212 kts 316°
2026-04-30 18:17 59.41181 25.21279 3661 ft 218 kts 278°
2026-04-30 18:17 59.41151 25.15586 3085 ft 202 kts 278°
2026-04-30 18:18 59.41197 25.12819 2821 ft 207 kts 275°
2026-04-30 18:18 59.41214 25.09979 2560 ft 210 kts 275°
2026-04-30 18:18 59.41228 25.07157 2241 ft 205 kts 274°
2026-04-30 18:18 59.41237 25.04418 1935 ft 191 kts 274°
2026-04-30 18:19 59.41249 25.01918 1677 ft 180 kts 274°
2026-04-30 18:19 59.41263 24.99508 1476 ft 169 kts 273°
2026-04-30 18:19 59.41267 24.97320 1248 ft 153 kts 273°
2026-04-30 18:19 59.41282 24.95294 1042 ft 146 kts 274°
2026-04-30 18:20 59.41294 24.93317 866 ft 144 kts 271°
2026-04-30 18:20 59.41282 24.91354 662 ft 142 kts 272°
2026-04-30 18:20 59.41304 24.89463 476 ft 136 kts 271°
2026-04-30 18:20 59.41312 24.87617 291 ft 132 kts 270°
2026-04-30 18:21 59.41324 24.85824 150 ft 124 kts 270°
2026-04-30 18:21 59.41324 24.84456 152 ft 78 kts 270°
2026-04-30 18:21 59.41326 24.83473 152 ft 68 kts 270°
2026-04-30 18:21 59.41328 24.82653 149 ft 56 kts 270°
2026-04-30 18:22 59.41329 24.81997 146 ft 39 kts 270°
2026-04-30 18:22 59.41332 24.81226 149 ft 23 kts 270°
2026-04-30 18:22 59.41333 24.80902 151 ft 20 kts 271°
2026-04-30 18:23 59.41346 24.80677 153 ft 14 kts 295°
2026-04-30 18:23 59.41416 24.80526 154 ft 17 kts 315°
2026-04-30 18:23 59.41511 24.80454 156 ft 13 kts 322°
2026-04-30 18:23 59.41528 24.80288 156 ft 15 kts 270°
2026-04-30 18:24 59.41565 24.80069 155 ft 4 kts
2026-04-30 18:24 59.41581 24.80069 155 ft 1 kts 360°
2026-04-30 18:24 59.41585 24.80069 155 ft 0 kts 360°